Wetterdaten: aktuell Mittwoch, 20.03.2019 04:30
Datum Zeit Temp. 2m Temp. -50cm Temp. -10cm Temp. -5cm Temp. +5cm Feuchte 2m Feuch. -10cm Luftdruck Regen Wind Richtung Richtung Sonnenschein Solar Windben
20.03.2019 04:30 -2,3 C 4,6 C 4,2 C 3,8 C -3,6 C 80 % 7 cb 1035,1 hPa 0,0 l/m 2,0 km/h S-SW 202 0 min 0 W/m 4,8 km/h
20.03.2019 04:25 -2,2 C 4,6 C 4,3 C 3,8 C -4,1 C 79 % 7 cb 1035,1 hPa 0,0 l/m 1,3 km/h S 180 0 min 0 W/m 4,8 km/h
20.03.2019 04:20 -2,0 C 4,6 C 4,3 C 3,8 C -3,4 C 78 % 7 cb 1034,9 hPa 0,0 l/m 2,4 km/h S 180 0 min 0 W/m 4,8 km/h
20.03.2019 04:15 -2,0 C 4,6 C 4,3 C 3,8 C -3,4 C 79 % 7 cb 1034,9 hPa 0,0 l/m 2,4 km/h S 180 0 min 0 W/m 4,8 km/h
20.03.2019 04:10 -2,1 C 4,6 C 4,3 C 3,9 C -3,4 C 80 % 7 cb 1034,9 hPa 0,0 l/m 3,6 km/h S 180 0 min 0 W/m 6,4 km/h
20.03.2019 04:05 -2,1 C 4,6 C 4,3 C 3,9 C -3,2 C 81 % 7 cb 1034,9 hPa 0,0 l/m 4,0 km/h S 180 0 min 0 W/m 6,4 km/h
20.03.2019 04:00 -2,0 C 4,6 C 4,3 C 3,9 C -3,2 C 81 % 7 cb 1034,9 hPa 0,0 l/m 2,8 km/h W 270 0 min 0 W/m 4,8 km/h
20.03.2019 03:55 -1,9 C 4,6 C 4,3 C 3,9 C -3,6 C 81 % 7 cb 1034,9 hPa 0,0 l/m 2,1 km/h W 270 0 min 0 W/m 3,2 km/h
20.03.2019 03:50 -1,9 C 4,6 C 4,3 C 3,9 C -3,2 C 81 % 7 cb 1034,8 hPa 0,0 l/m 3,4 km/h W 270 0 min 0 W/m 4,8 km/h
20.03.2019 03:45 -1,8 C 4,6 C 4,3 C 3,9 C -3,3 C 82 % 7 cb 1034,9 hPa 0,0 l/m 1,4 km/h W 270 0 min 0 W/m 4,8 km/h
20.03.2019 03:40 -1,8 C 4,6 C 4,3 C 3,9 C -3,4 C 82 % 7 cb 1034,9 hPa 0,0 l/m 0,0 km/h N 360 0 min 0 W/m 0,0 km/h
20.03.2019 03:35 -1,7 C 4,6 C 4,4 C 3,9 C -3,1 C 82 % 7 cb 1034,8 hPa 0,0 l/m 0,4 km/h W 270 0 min 0 W/m 1,6 km/h
20.03.2019 03:30 -1,7 C 4,6 C 4,4 C 4,1 C -3,1 C 83 % 7 cb 1034,8 hPa 0,0 l/m 1,7 km/h W 270 0 min 0 W/m 3,2 km/h
20.03.2019 03:25 -1,7 C 4,6 C 4,4 C 4,1 C -2,8 C 83 % 7 cb 1034,9 hPa 0,0 l/m 4,5 km/h W 270 0 min 0 W/m 6,4 km/h
20.03.2019 03:20 -1,7 C 4,6 C 4,4 C 4,1 C -2,9 C 82 % 7 cb 1034,9 hPa 0,0 l/m 5,3 km/h W-NW 292 0 min 0 W/m 9,6 km/h
20.03.2019 03:15 -1,8 C 4,6 C 4,4 C 4,1 C -3,3 C 79 % 7 cb 1034,8 hPa 0,0 l/m 3,4 km/h S-SW 202 0 min 0 W/m 6,4 km/h
20.03.2019 03:10 -1,6 C 4,6 C 4,4 C 4,1 C -3,2 C 78 % 7 cb 1034,9 hPa 0,0 l/m 1,6 km/h S 180 0 min 0 W/m 3,2 km/h
20.03.2019 03:05 -1,7 C 4,6 C 4,4 C 4,1 C -3,1 C 78 % 7 cb 1034,8 hPa 0,0 l/m 1,4 km/h S 180 0 min 0 W/m 3,2 km/h
20.03.2019 03:00 -1,7 C 4,6 C 4,5 C 4,1 C -2,9 C 79 % 7 cb 1034,8 hPa 0,0 l/m 1,7 km/h S 180 0 min 0 W/m 3,2 km/h
20.03.2019 02:55 -1,6 C 4,6 C 4,5 C 4,1 C -2,9 C 79 % 7 cb 1034,7 hPa 0,0 l/m 1,4 km/h S 180 0 min 0 W/m 3,2 km/h
20.03.2019 02:50 -1,3 C 4,6 C 4,5 C 4,1 C -3,1 C 79 % 7 cb 1034,7 hPa 0,0 l/m 0,2 km/h S 180 0 min 0 W/m 1,6 km/h
20.03.2019 02:45 -1,3 C 4,6 C 4,5 C 4,2 C -3,1 C 78 % 7 cb 1034,6 hPa 0,0 l/m 0,1 km/h S 180 0 min 0 W/m 1,6 km/h
20.03.2019 02:40 -1,2 C 4,6 C 4,5 C 4,2 C -3,1 C 79 % 7 cb 1034,7 hPa 0,0 l/m 0,7 km/h S 180 0 min 0 W/m 3,2 km/h
20.03.2019 02:35 -1,1 C 4,6 C 4,6 C 4,2 C -2,7 C 79 % 6 cb 1034,6 hPa 0,0 l/m 1,0 km/h S 180 0 min 0 W/m 3,2 km/h
20.03.2019 02:30 -1,2 C 4,6 C 4,6 C 4,2 C -2,6 C 81 % 6 cb 1034,7 hPa 0,0 l/m 0,2 km/h S 180 0 min 0 W/m 3,2 km/h
20.03.2019 02:25 -1,1 C 4,6 C 4,6 C 4,3 C -2,4 C 81 % 6 cb 1034,7 hPa 0,0 l/m 0,0 km/h N 360 0 min 0 W/m 0,0 km/h
20.03.2019 02:20 -1,0 C 4,6 C 4,6 C 4,3 C -2,3 C 81 % 6 cb 1034,7 hPa 0,0 l/m 0,2 km/h S 180 0 min 0 W/m 1,6 km/h
20.03.2019 02:15 -0,9 C 4,6 C 4,6 C 4,3 C -2,4 C 81 % 6 cb 1034,7 hPa 0,0 l/m 1,8 km/h S 180 0 min 0 W/m 3,2 km/h
20.03.2019 02:10 -0,8 C 4,6 C 4,6 C 4,3 C -2,6 C 80 % 6 cb 1034,7 hPa 0,0 l/m 0,1 km/h S 180 0 min 0 W/m 1,6 km/h
20.03.2019 02:05 -0,7 C 4,6 C 4,7 C 4,3 C -2,6 C 80 % 6 cb 1034,8 hPa 0,0 l/m 0,0 km/h N 360 0 min 0 W/m 0,0 km/h
20.03.2019 02:00 -0,7 C 4,6 C 4,7 C 4,3 C -2,1 C 79 % 6 cb 1034,7 hPa 0,0 l/m 0,1 km/h S 180 0 min 0 W/m 1,6 km/h
20.03.2019 01:55 -0,7 C 4,6 C 4,7 C 4,3 C -2,1 C 79 % 6 cb 1034,7 hPa 0,0 l/m 1,0 km/h S 180 0 min 0 W/m 1,6 km/h
20.03.2019 01:50 -0,5 C 4,6 C 4,7 C 4,3 C -2,3 C 77 % 6 cb 1034,7 hPa 0,0 l/m 0,0 km/h S 180 0 min 0 W/m 1,6 km/h
20.03.2019 01:45 -0,4 C 4,6 C 4,7 C 4,3 C -1,9 C 76 % 6 cb 1034,6 hPa 0,0 l/m 0,4 km/h S 180 0 min 0 W/m 3,2 km/h
20.03.2019 01:40 -0,4 C 4,6 C 4,7 C 4,4 C -2,2 C 76 % 6 cb 1034,7 hPa 0,0 l/m 1,1 km/h S 180 0 min 0 W/m 6,4 km/h
20.03.2019 01:35 -0,3 C 4,6 C 4,8 C 4,4 C -2,2 C 74 % 6 cb 1034,6 hPa 0,0 l/m 3,3 km/h S 180 0 min 0 W/m 8,0 km/h
20.03.2019 01:30 -0,2 C 4,6 C 4,8 C 4,4 C -2,1 C 76 % 6 cb 1034,5 hPa 0,0 l/m 3,3 km/h S-SW 202 0 min 0 W/m 6,4 km/h
20.03.2019 01:25 -0,2 C 4,6 C 4,8 C 4,4 C -1,7 C 77 % 6 cb 1034,5 hPa 0,0 l/m 2,5 km/h S-SW 202 0 min 0 W/m 4,8 km/h
20.03.2019 01:20 -0,1 C 4,6 C 4,8 C 4,5 C -1,6 C 76 % 6 cb 1034,4 hPa 0,0 l/m 4,7 km/h S-SW 202 0 min 0 W/m 8,0 km/h
20.03.2019 01:15 -0,3 C 4,6 C 4,8 C 4,5 C -1,8 C 78 % 6 cb 1034,5 hPa 0,0 l/m 3,2 km/h S-SO 158 0 min 0 W/m 8,0 km/h
20.03.2019 01:10 -0,2 C 4,6 C 4,8 C 4,5 C -1,9 C 78 % 6 cb 1034,5 hPa 0,0 l/m 2,2 km/h S-SO 158 0 min 0 W/m 6,4 km/h
20.03.2019 01:05 -0,2 C 4,6 C 4,8 C 4,5 C -1,8 C 78 % 6 cb 1034,4 hPa 0,0 l/m 3,1 km/h S-SO 158 0 min 0 W/m 8,0 km/h
20.03.2019 01:00 -0,2 C 4,6 C 4,8 C 4,6 C -1,8 C 80 % 6 cb 1034,2 hPa 0,0 l/m 2,3 km/h SW 225 0 min 0 W/m 3,2 km/h
20.03.2019 00:55 -0,2 C 4,6 C 4,8 C 4,6 C -1,4 C 80 % 6 cb 1034,3 hPa 0,0 l/m 3,5 km/h SW 225 0 min 0 W/m 4,8 km/h
20.03.2019 00:50 -0,2 C 4,6 C 4,8 C 4,6 C -1,5 C 80 % 6 cb 1034,2 hPa 0,0 l/m 4,3 km/h SW 225 0 min 0 W/m 6,4 km/h
20.03.2019 00:45 -0,1 C 4,6 C 4,8 C 4,6 C -1,7 C 76 % 6 cb 1034,1 hPa 0,0 l/m 4,1 km/h S 180 0 min 0 W/m 8,0 km/h
20.03.2019 00:40 -0,1 C 4,6 C 4,8 C 4,7 C -2,0 C 77 % 6 cb 1034,0 hPa 0,0 l/m 3,0 km/h SO 135 0 min 0 W/m 6,4 km/h
20.03.2019 00:35 0,0 C 4,6 C 4,8 C 4,7 C -2,0 C 76 % 6 cb 1034,0 hPa 0,0 l/m 0,7 km/h S 180 0 min 0 W/m 3,2 km/h
20.03.2019 00:30 0,3 C 4,6 C 4,9 C 4,7 C -2,1 C 75 % 6 cb 1033,8 hPa 0,0 l/m 0,0 km/h S 180 0 min 0 W/m 1,6 km/h
20.03.2019 00:25 0,3 C 4,6 C 4,9 C 4,7 C -2,1 C 76 % 6 cb 1033,9 hPa 0,0 l/m 0,2 km/h S 180 0 min 0 W/m 1,6 km/h
20.03.2019 00:20 0,2 C 4,6 C 4,9 C 4,8 C -1,8 C 77 % 6 cb 1033,9 hPa 0,0 l/m 0,9 km/h S 180 0 min 0 W/m 3,2 km/h
20.03.2019 00:15 0,0 C 4,6 C 4,9 C 4,8 C -1,8 C 78 % 6 cb 1033,8 hPa 0,0 l/m 0,0 km/h N 360 0 min 0 W/m 0,0 km/h
20.03.2019 00:10 -0,1 C 4,6 C 4,9 C 4,8 C -2,2 C 78 % 6 cb 1033,9 hPa 0,0 l/m 0,0 km/h N 360 0 min 0 W/m 0,0 km/h
20.03.2019 00:05 0,1 C 4,6 C 5,0 C 4,8 C -1,9 C 77 % 6 cb 1033,7 hPa 0,0 l/m 0,6 km/h S 180 0 min 0 W/m 3,2 km/h
20.03.2019 00:00 0,2 C 4,6 C 5,0 C 4,8 C -1,8 C 78 % 6 cb 1033,6 hPa 0,0 l/m 3,1 km/h S 180 0 min 0 W/m 4,8 km/h
19.03.2019 23:55 0,1 C 4,6 C 5,0 C 4,8 C -1,7 C 78 % 6 cb 1033,6 hPa 0,0 l/m 3,0 km/h S 180 0 min 0 W/m 8,0 km/h
19.03.2019 23:50 0,2 C 4,6 C 5,0 C 4,8 C -1,7 C 78 % 6 cb 1033,5 hPa 0,0 l/m 0,9 km/h SO 135 0 min 0 W/m 3,2 km/h
19.03.2019 23:45 0,3 C 4,6 C 5,0 C 4,8 C -1,3 C 78 % 6 cb 1033,4 hPa 0,0 l/m 0,3 km/h SO 135 0 min 0 W/m 1,6 km/h
19.03.2019 23:40 0,3 C 4,6 C 5,0 C 4,8 C -1,5 C 80 % 6 cb 1033,2 hPa 0,0 l/m 0,0 km/h N 360 0 min 0 W/m 0,0 km/h
19.03.2019 23:35 0,2 C 4,6 C 5,0 C 4,9 C -1,6 C 81 % 6 cb 1033,3 hPa 0,0 l/m 0,0 km/h N 360 0 min 0 W/m 0,0 km/h
19.03.2019 23:30 0,0 C 4,6 C 5,0 C 4,9 C -1,4 C 81 % 6 cb 1033,3 hPa 0,0 l/m 0,0 km/h N 360 0 min 0 W/m 0,0 km/h
19.03.2019 23:25 -0,1 C 4,6 C 5,1 C 4,9 C -1,7 C 81 % 6 cb 1033,3 hPa 0,0 l/m 0,0 km/h N 360 0 min 0 W/m 0,0 km/h
19.03.2019 23:20 0,1 C 4,6 C 5,1 C 4,9 C -1,4 C 80 % 6 cb 1033,2 hPa 0,0 l/m 0,0 km/h N 360 0 min 0 W/m 0,0 km/h
19.03.2019 23:15 0,3 C 4,6 C 5,1 C 5,0 C -1,6 C 79 % 6 cb 1033,1 hPa 0,0 l/m 0,9 km/h SO 135 0 min 0 W/m 3,2 km/h
19.03.2019 23:10 0,4 C 4,6 C 5,1 C 5,0 C -1,5 C 79 % 6 cb 1033,1 hPa 0,0 l/m 2,7 km/h SO 135 0 min 0 W/m 6,4 km/h
19.03.2019 23:05 0,5 C 4,6 C 5,1 C 5,0 C -1,6 C 79 % 6 cb 1033,0 hPa 0,0 l/m 1,4 km/h O 90 0 min 0 W/m 4,8 km/h
19.03.2019 23:00 0,3 C 4,6 C 5,1 C 5,0 C -1,5 C 80 % 6 cb 1032,9 hPa 0,0 l/m 0,0 km/h N 360 0 min 0 W/m 0,0 km/h
19.03.2019 22:55 0,4 C 4,6 C 5,1 C 5,1 C -1,3 C 80 % 6 cb 1033,0 hPa 0,0 l/m 0,0 km/h N 360 0 min 0 W/m 0,0 km/h
19.03.2019 22:50 0,6 C 4,6 C 5,2 C 5,1 C -0,9 C 80 % 6 cb 1032,8 hPa 0,0 l/m 0,0 km/h N 360 0 min 0 W/m 0,0 km/h
19.03.2019 22:45 0,7 C 4,6 C 5,2 C 5,1 C -0,9 C 80 % 6 cb 1032,8 hPa 0,0 l/m 0,0 km/h N 360 0 min 0 W/m 0,0 km/h
19.03.2019 22:40 0,6 C 4,6 C 5,2 C 5,1 C -1,0 C 81 % 6 cb 1032,8 hPa 0,0 l/m 0,0 km/h N 360 0 min 0 W/m 0,0 km/h
19.03.2019 22:35 0,7 C 4,6 C 5,2 C 5,1 C -0,7 C 80 % 6 cb 1032,8 hPa 0,0 l/m 0,0 km/h N 360 0 min 0 W/m 0,0 km/h
19.03.2019 22:30 0,8 C 4,6 C 5,2 C 5,2 C -0,7 C 81 % 6 cb 1032,7 hPa 0,0 l/m 0,0 km/h N 360 0 min 0 W/m 0,0 km/h
19.03.2019 22:25 0,8 C 4,6 C 5,2 C 5,2 C -0,3 C 80 % 6 cb 1032,7 hPa 0,0 l/m 0,0 km/h N 360 0 min 0 W/m 0,0 km/h
19.03.2019 22:20 0,9 C 4,6 C 5,2 C 5,2 C -0,4 C 81 % 6 cb 1032,6 hPa 0,0 l/m 0,4 km/h O 90 0 min 0 W/m 3,2 km/h
19.03.2019 22:15 0,9 C 4,6 C 5,2 C 5,2 C -0,3 C 81 % 6 cb 1032,6 hPa 0,0 l/m 0,0 km/h N 360 0 min 0 W/m 0,0 km/h
19.03.2019 22:10 0,9 C 4,6 C 5,2 C 5,2 C 0,0 C 81 % 6 cb 1032,6 hPa 0,0 l/m 0,0 km/h N 360 0 min 0 W/m 0,0 km/h
19.03.2019 22:05 1,1 C 4,6 C 5,2 C 5,2 C -0,1 C 81 % 6 cb 1032,5 hPa 0,0 l/m 0,0 km/h N 360 0 min 0 W/m 0,0 km/h
19.03.2019 22:00 1,1 C 4,6 C 5,2 C 5,2 C 0,2 C 80 % 6 cb 1032,4 hPa 0,0 l/m 0,0 km/h N 360 0 min 0 W/m 0,0 km/h
19.03.2019 21:55 1,1 C 4,6 C 5,2 C 5,2 C 0,0 C 79 % 6 cb 1032,3 hPa 0,0 l/m 0,1 km/h O 90 0 min 0 W/m 1,6 km/h
19.03.2019 21:50 1,2 C 4,6 C 5,2 C 5,3 C 0,1 C 79 % 6 cb 1032,3 hPa 0,0 l/m 0,0 km/h N 360 0 min 0 W/m 0,0 km/h
19.03.2019 21:45 1,3 C 4,6 C 5,2 C 5,3 C 0,6 C 78 % 6 cb 1032,2 hPa 0,0 l/m 1,5 km/h O 90 0 min 0 W/m 4,8 km/h
19.03.2019 21:40 1,3 C 4,6 C 5,3 C 5,3 C 0,6 C 79 % 6 cb 1032,1 hPa 0,0 l/m 2,4 km/h O 90 0 min 0 W/m 4,8 km/h
19.03.2019 21:35 1,4 C 4,6 C 5,3 C 5,3 C 0,6 C 79 % 6 cb 1032,1 hPa 0,0 l/m 0,3 km/h O 90 0 min 0 W/m 3,2 km/h
19.03.2019 21:30 1,4 C 4,6 C 5,3 C 5,3 C 0,7 C 79 % 6 cb 1032,1 hPa 0,0 l/m 2,2 km/h O 90 0 min 0 W/m 4,8 km/h
19.03.2019 21:25 1,4 C 4,6 C 5,3 C 5,4 C 0,6 C 79 % 6 cb 1032,1 hPa 0,0 l/m 2,0 km/h O 90 0 min 0 W/m 4,8 km/h
19.03.2019 21:20 1,4 C 4,6 C 5,3 C 5,4 C 0,4 C 80 % 6 cb 1032,1 hPa 0,0 l/m 1,3 km/h O 90 0 min 0 W/m 3,2 km/h
19.03.2019 21:15 1,4 C 4,5 C 5,3 C 5,4 C 0,4 C 79 % 6 cb 1032,1 hPa 0,0 l/m 2,4 km/h O 90 0 min 0 W/m 4,8 km/h
19.03.2019 21:10 1,4 C 4,5 C 5,3 C 5,4 C 0,2 C 79 % 6 cb 1032,1 hPa 0,0 l/m 0,5 km/h O 90 0 min 0 W/m 3,2 km/h
19.03.2019 21:05 1,4 C 4,5 C 5,3 C 5,5 C 0,5 C 79 % 6 cb 1032,1 hPa 0,0 l/m 0,6 km/h O 90 0 min 0 W/m 4,8 km/h
19.03.2019 21:00 1,4 C 4,5 C 5,3 C 5,5 C -0,1 C 79 % 6 cb 1032,0 hPa 0,0 l/m 0,0 km/h N 360 0 min 0 W/m 0,0 km/h
19.03.2019 20:55 1,4 C 4,5 C 5,3 C 5,5 C -0,3 C 78 % 6 cb 1032,1 hPa 0,0 l/m 0,0 km/h N 360 0 min 0 W/m 0,0 km/h
19.03.2019 20:50 1,4 C 4,5 C 5,4 C 5,5 C -0,3 C 78 % 6 cb 1031,9 hPa 0,0 l/m 0,0 km/h N 360 0 min 0 W/m 0,0 km/h
19.03.2019 20:45 1,6 C 4,5 C 5,4 C 5,6 C -0,5 C 78 % 6 cb 1031,9 hPa 0,0 l/m 0,0 km/h N 360 0 min 0 W/m 0,0 km/h
19.03.2019 20:40 1,6 C 4,5 C 5,4 C 5,6 C -0,3 C 77 % 6 cb 1031,7 hPa 0,0 l/m 0,0 km/h N 360 0 min 0 W/m 0,0 km/h
19.03.2019 20:35 1,7 C 4,5 C 5,4 C 5,6 C 0,0 C 76 % 6 cb 1031,7 hPa 0,0 l/m 0,0 km/h N 360 0 min 0 W/m 0,0 km/h
19.03.2019 20:30 1,8 C 4,5 C 5,4 C 5,6 C 0,0 C 74 % 6 cb 1031,7 hPa 0,0 l/m 0,0 km/h N 360 0 min 0 W/m 0,0 km/h
19.03.2019 20:25 1,9 C 4,5 C 5,4 C 5,6 C 0,4 C 72 % 6 cb 1031,5 hPa 0,0 l/m 0,0 km/h N 360 0 min 0 W/m 0,0 km/h
19.03.2019 20:20 2,1 C 4,5 C 5,4 C 5,6 C 0,9 C 72 % 6 cb 1031,4 hPa 0,0 l/m 0,0 km/h N 360 0 min 0 W/m 0,0 km/h
19.03.2019 20:15 2,1 C 4,5 C 5,4 C 5,6 C 0,8 C 72 % 6 cb 1031,3 hPa 0,0 l/m 0,7 km/h SO 135 0 min 0 W/m 3,2 km/h
19.03.2019 20:10 2,2 C 4,5 C 5,4 C 5,6 C 0,9 C 72 % 6 cb 1031,2 hPa 0,0 l/m 1,9 km/h SO 135 0 min 0 W/m 4,8 km/h
19.03.2019 20:05 2,2 C 4,5 C 5,4 C 5,7 C 1,2 C 72 % 6 cb 1031,1 hPa 0,0 l/m 2,6 km/h SO 135 0 min 0 W/m 6,4 km/h
19.03.2019 20:00 2,3 C 4,5 C 5,4 C 5,7 C 1,2 C 71 % 6 cb 1031,0 hPa 0,0 l/m 3,1 km/h O-SO 112 0 min 0 W/m 6,4 km/h
19.03.2019 19:55 2,3 C 4,5 C 5,4 C 5,7 C 0,9 C 71 % 6 cb 1031,0 hPa 0,0 l/m 1,8 km/h S 180 0 min 0 W/m 4,8 km/h
19.03.2019 19:50 2,3 C 4,5 C 5,4 C 5,7 C 1,2 C 71 % 6 cb 1030,8 hPa 0,0 l/m 1,9 km/h S 180 0 min 0 W/m 4,8 km/h
19.03.2019 19:45 2,3 C 4,4 C 5,4 C 5,7 C 1,5 C 71 % 6 cb 1030,7 hPa 0,0 l/m 3,4 km/h S-SO 158 0 min 0 W/m 8,0 km/h
19.03.2019 19:40 2,4 C 4,4 C 5,5 C 5,8 C 1,6 C 70 % 6 cb 1030,7 hPa 0,0 l/m 4,2 km/h S 180 0 min 0 W/m 8,0 km/h
19.03.2019 19:35 2,4 C 4,4 C 5,5 C 5,8 C 1,6 C 70 % 6 cb 1030,6 hPa 0,0 l/m 5,2 km/h S-SO 158 0 min 0 W/m 9,6 km/h
19.03.2019 19:30 2,4 C 4,4 C 5,5 C 5,8 C 1,6 C 70 % 6 cb 1030,5 hPa 0,0 l/m 6,3 km/h S-SO 158 0 min 0 W/m 12,8 km/h
19.03.2019 19:25 2,5 C 4,4 C 5,5 C 5,8 C 1,6 C 70 % 6 cb 1030,4 hPa 0,0 l/m 5,5 km/h S-SO 158 0 min 0 W/m 11,2 km/h
19.03.2019 19:20 2,6 C 4,4 C 5,5 C 5,9 C 1,6 C 70 % 6 cb 1030,3 hPa 0,0 l/m 5,7 km/h S-SO 158 0 min 0 W/m 11,2 km/h
19.03.2019 19:15 2,7 C 4,4 C 5,5 C 5,9 C 1,7 C 69 % 6 cb 1030,1 hPa 0,0 l/m 5,1 km/h SO 135 0 min 0 W/m 11,2 km/h
19.03.2019 19:10 2,7 C 4,4 C 5,5 C 5,9 C 1,7 C 69 % 6 cb 1030,1 hPa 0,0 l/m 5,5 km/h O-SO 112 0 min 0 W/m 11,2 km/h
19.03.2019 19:05 2,8 C 4,4 C 5,5 C 5,9 C 1,6 C 69 % 6 cb 1030,0 hPa 0,0 l/m 2,6 km/h O-SO 112 0 min 0 W/m 6,4 km/h
19.03.2019 19:00 2,9 C 4,4 C 5,5 C 5,9 C 1,5 C 69 % 6 cb 1030,0 hPa 0,0 l/m 3,2 km/h O 90 0 min 0 W/m 4,8 km/h
19.03.2019 18:55 3,0 C 4,4 C 5,5 C 5,9 C 1,8 C 68 % 6 cb 1029,8 hPa 0,0 l/m 4,0 km/h SO 135 0 min 0 W/m 9,6 km/h
19.03.2019 18:50 3,1 C 4,4 C 5,5 C 5,9 C 1,9 C 68 % 6 cb 1029,8 hPa 0,0 l/m 2,3 km/h SO 135 0 min 0 W/m 6,4 km/h
19.03.2019 18:45 3,1 C 4,4 C 5,5 C 5,9 C 2,2 C 68 % 6 cb 1029,7 hPa 0,0 l/m 2,4 km/h O-SO 112 0 min 0 W/m 4,8 km/h
19.03.2019 18:40 3,2 C 4,4 C 5,5 C 5,9 C 2,6 C 67 % 6 cb 1029,7 hPa 0,0 l/m 7,6 km/h O 90 0 min 0 W/m 12,8 km/h
19.03.2019 18:35 3,2 C 4,4 C 5,5 C 5,9 C 2,8 C 68 % 6 cb 1029,5 hPa 0,0 l/m 10,2 km/h O 90 0 min 0 W/m 14,4 km/h
19.03.2019 18:30 3,3 C 4,4 C 5,4 C 5,9 C 2,8 C 67 % 6 cb 1029,4 hPa 0,0 l/m 7,7 km/h O 90 0 min 0 W/m 12,8 km/h
19.03.2019 18:25 3,4 C 4,4 C 5,4 C 5,9 C 2,9 C 67 % 6 cb 1029,2 hPa 0,0 l/m 10,6 km/h O 90 0 min 0 W/m 16,0 km/h
19.03.2019 18:20 3,5 C 4,4 C 5,4 C 5,9 C 3,1 C 66 % 6 cb 1029,1 hPa 0,0 l/m 9,5 km/h O 90 0 min 3 W/m 14,4 km/h
19.03.2019 18:15 3,6 C 4,3 C 5,4 C 5,9 C 3,3 C 65 % 6 cb 1029,0 hPa 0,0 l/m 7,0 km/h O 90 0 min 8 W/m 12,8 km/h
19.03.2019 18:10 3,8 C 4,3 C 5,4 C 5,9 C 3,5 C 64 % 6 cb 1028,8 hPa 0,0 l/m 10,5 km/h O 90 0 min 11 W/m 19,2 km/h
19.03.2019 18:05 4,0 C 4,3 C 5,4 C 5,9 C 3,7 C 63 % 6 cb 1028,6 hPa 0,0 l/m 7,8 km/h O 90 0 min 16 W/m 12,8 km/h
19.03.2019 18:00 4,2 C 4,3 C 5,4 C 5,9 C 3,9 C 62 % 6 cb 1028,5 hPa 0,0 l/m 7,1 km/h O-NO 68 0 min 24 W/m 16,0 km/h
19.03.2019 17:55 4,3 C 4,3 C 5,4 C 5,9 C 4,1 C 59 % 6 cb 1028,3 hPa 0,0 l/m 3,7 km/h O-NO 68 0 min 33 W/m 6,4 km/h
19.03.2019 17:50 4,3 C 4,3 C 5,4 C 6,1 C 4,3 C 60 % 6 cb 1028,3 hPa 0,0 l/m 5,2 km/h O-NO 68 0 min 41 W/m 8,0 km/h
19.03.2019 17:45 4,3 C 4,3 C 5,4 C 6,1 C 4,4 C 59 % 6 cb 1028,1 hPa 0,0 l/m 4,6 km/h O-NO 68 0 min 50 W/m 8,0 km/h
19.03.2019 17:40 4,3 C 4,3 C 5,4 C 6,1 C 4,6 C 60 % 6 cb 1028,1 hPa 0,0 l/m 2,2 km/h O-NO 68 0 min 57 W/m 6,4 km/h
19.03.2019 17:35 4,4 C 4,3 C 5,4 C 6,1 C 4,8 C 59 % 6 cb 1028,0 hPa 0,0 l/m 2,9 km/h O-NO 68 0 min 63 W/m 4,8 km/h
19.03.2019 17:30 4,4 C 4,3 C 5,3 C 6,1 C 4,7 C 59 % 6 cb 1028,0 hPa 0,0 l/m 3,3 km/h O-NO 68 0 min 68 W/m 6,4 km/h
19.03.2019 17:25 4,4 C 4,3 C 5,3 C 6,1 C 4,7 C 59 % 6 cb 1027,9 hPa 0,0 l/m 4,4 km/h O-NO 68 0 min 68 W/m 6,4 km/h
19.03.2019 17:20 4,4 C 4,3 C 5,3 C 6,1 C 4,8 C 58 % 6 cb 1027,8 hPa 0,0 l/m 5,9 km/h O-NO 68 0 min 69 W/m 8,0 km/h
19.03.2019 17:15 4,4 C 4,3 C 5,3 C 6,1 C 4,8 C 58 % 6 cb 1027,8 hPa 0,0 l/m 4,7 km/h O 90 0 min 76 W/m 8,0 km/h
19.03.2019 17:10 4,5 C 4,3 C 5,3 C 6,1 C 4,8 C 58 % 6 cb 1027,6 hPa 0,0 l/m 8,7 km/h O-NO 68 0 min 79 W/m 14,4 km/h
19.03.2019 17:05 4,6 C 4,3 C 5,3 C 6,1 C 5,0 C 59 % 6 cb 1027,5 hPa 0,0 l/m 5,3 km/h O-NO 68 0 min 82 W/m 8,0 km/h
19.03.2019 17:00 4,6 C 4,3 C 5,3 C 6,1 C 5,2 C 59 % 6 cb 1027,5 hPa 0,0 l/m 3,5 km/h O-NO 68 0 min 89 W/m 6,4 km/h
19.03.2019 16:55 4,6 C 4,3 C 5,3 C 6,1 C 5,3 C 59 % 6 cb 1027,5 hPa 0,0 l/m 5,4 km/h O 90 0 min 93 W/m 9,6 km/h
19.03.2019 16:50 4,6 C 4,3 C 5,2 C 6,1 C 5,5 C 59 % 6 cb 1027,3 hPa 0,0 l/m 5,5 km/h O-NO 68 0 min 95 W/m 9,6 km/h
19.03.2019 16:45 4,6 C 4,3 C 5,2 C 5,9 C 5,6 C 60 % 6 cb 1027,3 hPa 0,0 l/m 6,2 km/h O 90 0 min 105 W/m 12,8 km/h
19.03.2019 16:40 4,6 C 4,3 C 5,2 C 5,9 C 5,8 C 59 % 6 cb 1027,3 hPa 0,0 l/m 5,2 km/h O 90 0 min 110 W/m 11,2 km/h
19.03.2019 16:35 4,7 C 4,3 C 5,2 C 5,9 C 5,9 C 61 % 6 cb 1027,1 hPa 0,0 l/m 7,2 km/h O 90 0 min 114 W/m 11,2 km/h
19.03.2019 16:30 4,7 C 4,3 C 5,2 C 5,9 C 5,9 C 60 % 6 cb 1027,2 hPa 0,0 l/m 7,9 km/h O-NO 68 0 min 117 W/m 12,8 km/h
19.03.2019 16:25 4,6 C 4,3 C 5,2 C 5,9 C 5,9 C 60 % 6 cb 1027,2 hPa 0,0 l/m 8,7 km/h O 90 0 min 120 W/m 14,4 km/h
19.03.2019 16:20 4,6 C 4,3 C 5,2 C 5,9 C 6,1 C 60 % 6 cb 1027,2 hPa 0,0 l/m 6,7 km/h O 90 0 min 123 W/m 12,8 km/h
19.03.2019 16:15 4,5 C 4,3 C 5,2 C 5,9 C 5,8 C 59 % 6 cb 1027,2 hPa 0,0 l/m 9,9 km/h O-NO 68 0 min 124 W/m 16,0 km/h
19.03.2019 16:10 4,6 C 4,3 C 5,2 C 5,9 C 5,9 C 62 % 6 cb 1027,1 hPa 0,0 l/m 8,3 km/h O 90 0 min 123 W/m 12,8 km/h
19.03.2019 16:05 4,6 C 4,3 C 5,1 C 5,9 C 5,7 C 63 % 6 cb 1027,1 hPa 0,0 l/m 11,1 km/h O 90 0 min 122 W/m 17,6 km/h
19.03.2019 16:00 4,7 C 4,3 C 5,1 C 5,9 C 5,9 C 63 % 6 cb 1027,1 hPa 0,0 l/m 7,8 km/h O 90 0 min 116 W/m 14,4 km/h
19.03.2019 15:55 4,6 C 4,3 C 5,1 C 5,9 C 5,9 C 64 % 6 cb 1027,0 hPa 0,0 l/m 7,4 km/h O 90 0 min 112 W/m 16,0 km/h
19.03.2019 15:50 4,6 C 4,3 C 5,1 C 5,9 C 5,6 C 63 % 6 cb 1027,0 hPa 0,0 l/m 8,4 km/h O 90 0 min 107 W/m 19,2 km/h
19.03.2019 15:45 4,5 C 4,3 C 5,0 C 5,9 C 5,5 C 63 % 6 cb 1027,0 hPa 0,0 l/m 9,6 km/h O-SO 112 0 min 101 W/m 17,6 km/h
19.03.2019 15:40 4,4 C 4,3 C 5,0 C 5,8 C 5,4 C 63 % 6 cb 1027,0 hPa 0,0 l/m 12,4 km/h O 90 0 min 98 W/m 19,2 km/h
19.03.2019 15:35 4,6 C 4,3 C 5,0 C 5,8 C 5,4 C 62 % 6 cb 1026,9 hPa 0,0 l/m 14,3 km/h O 90 0 min 99 W/m 22,4 km/h
19.03.2019 15:30 4,8 C 4,3 C 4,9 C 5,8 C 5,7 C 61 % 6 cb 1026,8 hPa 0,0 l/m 13,9 km/h O 90 0 min 107 W/m 19,2 km/h
19.03.2019 15:25 4,9 C 4,3 C 4,9 C 5,7 C 6,2 C 60 % 6 cb 1026,4 hPa 0,0 l/m 13,4 km/h O 90 0 min 128 W/m 24,0 km/h
19.03.2019 15:20 5,6 C 4,3 C 4,9 C 5,7 C 7,1 C 55 % 6 cb 1026,1 hPa 0,0 l/m 12,9 km/h NO 45 0 min 166 W/m 24,0 km/h
19.03.2019 15:15 5,9 C 4,3 C 4,8 C 5,7 C 9,1 C 48 % 6 cb 1025,9 hPa 0,0 l/m 3,9 km/h O-NO 68 0 min 212 W/m 6,4 km/h
19.03.2019 15:10 5,8 C 4,3 C 4,8 C 5,6 C 8,9 C 46 % 6 cb 1025,9 hPa 0,0 l/m 2,7 km/h O 90 0 min 235 W/m 4,8 km/h
19.03.2019 15:05 5,9 C 4,3 C 4,8 C 5,6 C 10,3 C 45 % 6 cb 1025,9 hPa 0,0 l/m 2,9 km/h W 270 0 min 273 W/m 9,6 km/h
19.03.2019 15:00 6,2 C 4,3 C 4,8 C 5,6 C 11,6 C 43 % 6 cb 1025,7 hPa 0,0 l/m 8,1 km/h W-NW 292 5 min 316 W/m 12,8 km/h
19.03.2019 14:55 6,0 C 4,3 C 4,8 C 5,6 C 9,4 C 49 % 6 cb 1025,7 hPa 0,0 l/m 4,7 km/h W 270 5 min 315 W/m 11,2 km/h
19.03.2019 14:50 5,9 C 4,3 C 4,8 C 5,6 C 10,4 C 52 % 6 cb 1025,8 hPa 0,0 l/m 6,5 km/h W 270 5 min 352 W/m 14,4 km/h
19.03.2019 14:45 6,1 C 4,3 C 4,8 C 5,5 C 9,3 C 48 % 6 cb 1025,8 hPa 0,0 l/m 9,5 km/h W 270 5 min 351 W/m 14,4 km/h
19.03.2019 14:40 6,1 C 4,3 C 4,7 C 5,5 C 10,7 C 51 % 6 cb 1025,8 hPa 0,0 l/m 5,8 km/h W-NW 292 5 min 355 W/m 12,8 km/h
19.03.2019 14:35 5,8 C 4,3 C 4,7 C 5,4 C 9,4 C 51 % 6 cb 1025,9 hPa 0,0 l/m 3,7 km/h W-SW 248 5 min 333 W/m 8,0 km/h
19.03.2019 14:30 5,7 C 4,3 C 4,7 C 5,4 C 8,3 C 47 % 6 cb 1025,9 hPa 0,0 l/m 7,0 km/h W 270 0 min 303 W/m 12,8 km/h
19.03.2019 14:25 5,6 C 4,3 C 4,6 C 5,3 C 8,4 C 53 % 6 cb 1026,0 hPa 0,0 l/m 4,3 km/h W 270 0 min 295 W/m 9,6 km/h
19.03.2019 14:20 5,6 C 4,3 C 4,6 C 5,3 C 7,8 C 49 % 6 cb 1026,1 hPa 0,0 l/m 9,3 km/h W 270 0 min 299 W/m 12,8 km/h
19.03.2019 14:15 5,6 C 4,3 C 4,6 C 5,2 C 7,9 C 49 % 6 cb 1026,1 hPa 0,0 l/m 8,3 km/h W 270 0 min 306 W/m 14,4 km/h
19.03.2019 14:10 5,4 C 4,3 C 4,5 C 5,2 C 8,9 C 53 % 6 cb 1026,0 hPa 0,0 l/m 2,8 km/h N-NO 22 0 min 260 W/m 8,0 km/h
19.03.2019 14:05 5,5 C 4,3 C 4,5 C 5,2 C 8,7 C 52 % 6 cb 1026,1 hPa 0,0 l/m 5,1 km/h N-NO 22 0 min 248 W/m 8,0 km/h
19.03.2019 14:00 5,0 C 4,3 C 4,5 C 5,1 C 8,4 C 52 % 6 cb 1026,2 hPa 0,0 l/m 1,8 km/h N-NO 22 0 min 246 W/m 4,8 km/h
19.03.2019 13:55 5,2 C 4,3 C 4,4 C 5,1 C 8,7 C 52 % 6 cb 1026,3 hPa 0,0 l/m 3,2 km/h N 360 0 min 252 W/m 6,4 km/h
19.03.2019 13:50 5,3 C 4,3 C 4,4 C 5,0 C 8,4 C 52 % 6 cb 1026,1 hPa 0,0 l/m 6,6 km/h NO 45 0 min 246 W/m 11,2 km/h
19.03.2019 13:45 5,5 C 4,3 C 4,4 C 4,9 C 9,1 C 53 % 7 cb 1026,0 hPa 0,0 l/m 10,5 km/h O-NO 68 0 min 257 W/m 17,6 km/h
19.03.2019 13:40 5,4 C 4,3 C 4,4 C 4,8 C 12,1 C 53 % 7 cb 1026,1 hPa 0,0 l/m 3,9 km/h O-NO 68 5 min 346 W/m 8,0 km/h
19.03.2019 13:35 5,9 C 4,3 C 4,3 C 4,8 C 11,6 C 52 % 7 cb 1025,8 hPa 0,0 l/m 8,7 km/h O 90 5 min 389 W/m 12,8 km/h
19.03.2019 13:30 5,6 C 4,3 C 4,3 C 4,8 C 12,1 C 53 % 7 cb 1026,0 hPa 0,0 l/m 8,4 km/h O 90 5 min 399 W/m 12,8 km/h
19.03.2019 13:25 6,2 C 4,3 C 4,3 C 4,8 C 15,6 C 58 % 7 cb 1025,9 hPa 0,0 l/m 7,9 km/h O-NO 68 5 min 679 W/m 12,8 km/h
19.03.2019 13:20 5,7 C 4,3 C 4,3 C 4,7 C 13,6 C 55 % 7 cb 1025,8 hPa 0,0 l/m 9,1 km/h N 360 5 min 532 W/m 17,6 km/h
19.03.2019 13:15 5,5 C 4,3 C 4,3 C 4,7 C 17,2 C 54 % 7 cb 1026,1 hPa 0,0 l/m 5,2 km/h O-NO 68 5 min 625 W/m 9,6 km/h
19.03.2019 13:10 5,8 C 4,3 C 4,3 C 4,6 C 14,6 C 56 % 7 cb 1026,0 hPa 0,0 l/m 6,8 km/h O 90 5 min 564 W/m 12,8 km/h
19.03.2019 13:05 6,0 C 4,3 C 4,3 C 4,6 C 15,7 C 56 % 7 cb 1026,0 hPa 0,0 l/m 7,0 km/h O-NO 68 5 min 626 W/m 14,4 km/h
19.03.2019 13:00 5,6 C 4,3 C 4,3 C 4,5 C 19,1 C 56 % 7 cb 1026,1 hPa 0,0 l/m 3,4 km/h S-SO 158 5 min 677 W/m 11,2 km/h
19.03.2019 12:55 5,9 C 4,3 C 4,3 C 4,5 C 17,2 C 55 % 7 cb 1026,1 hPa 0,0 l/m 6,1 km/h O-SO 112 5 min 833 W/m 14,4 km/h
19.03.2019 12:50 5,7 C 4,3 C 4,2 C 4,4 C 16,4 C 58 % 7 cb 1026,1 hPa 0,0 l/m 7,9 km/h NO 45 5 min 922 W/m 14,4 km/h
19.03.2019 12:45 5,7 C 4,3 C 4,2 C 4,4 C 15,2 C 60 % 7 cb 1026,2 hPa 0,0 l/m 8,5 km/h O-NO 68 5 min 683 W/m 14,4 km/h
19.03.2019 12:40 5,3 C 4,3 C 4,2 C 4,4 C 12,8 C 58 % 7 cb 1026,3 hPa 0,0 l/m 7,4 km/h O 90 5 min 483 W/m 14,4 km/h
19.03.2019 12:35 5,1 C 4,3 C 4,2 C 4,3 C 9,8 C 59 % 7 cb 1026,4 hPa 0,0 l/m 9,6 km/h O 90 5 min 461 W/m 19,2 km/h
19.03.2019 12:30 5,4 C 4,3 C 4,2 C 4,3 C 13,5 C 55 % 6 cb 1026,3 hPa 0,0 l/m 11,1 km/h O 90 5 min 677 W/m 19,2 km/h
19.03.2019 12:25 5,7 C 4,3 C 4,2 C 4,3 C 15,2 C 54 % 6 cb 1026,2 hPa 0,0 l/m 4,2 km/h SO 135 5 min 686 W/m 8,0 km/h
19.03.2019 12:20 5,2 C 4,3 C 4,2 C 4,3 C 9,6 C 56 % 6 cb 1026,6 hPa 0,0 l/m 6,0 km/h O-NO 68 5 min 938 W/m 11,2 km/h
19.03.2019 12:15 5,3 C 4,3 C 4,2 C 4,3 C 9,4 C 61 % 7 cb 1026,5 hPa 0,0 l/m 5,0 km/h S-SW 202 5 min 894 W/m 11,2 km/h
19.03.2019 12:10 4,3 C 4,3 C 4,2 C 4,3 C 8,1 C 58 % 7 cb 1027,0 hPa 0,0 l/m 4,2 km/h S-SW 202 5 min 720 W/m 9,6 km/h
19.03.2019 12:05 3,9 C 4,3 C 4,1 C 4,3 C 7,2 C 62 % 7 cb 1027,1 hPa 0,0 l/m 3,7 km/h SO 135 5 min 416 W/m 8,0 km/h
19.03.2019 12:00 3,7 C 4,3 C 4,1 C 4,3 C 6,7 C 65 % 7 cb 1027,1 hPa 0,0 l/m 1,8 km/h O 90 0 min 307 W/m 8,0 km/h
19.03.2019 11:55 3,6 C 4,3 C 4,1 C 4,2 C 6,6 C 66 % 7 cb 1027,2 hPa 0,0 l/m 3,6 km/h O 90 0 min 264 W/m 9,6 km/h
19.03.2019 11:50 3,6 C 4,3 C 4,1 C 4,2 C 6,4 C 67 % 7 cb 1027,2 hPa 0,0 l/m 5,5 km/h O 90 0 min 259 W/m 11,2 km/h
19.03.2019 11:45 3,3 C 4,3 C 4,1 C 4,2 C 6,5 C 69 % 7 cb 1027,3 hPa 0,0 l/m 5,8 km/h O-SO 112 0 min 262 W/m 11,2 km/h
19.03.2019 11:40 3,4 C 4,3 C 4,1 C 4,1 C 6,1 C 70 % 7 cb 1027,3 hPa 0,0 l/m 6,0 km/h O 90 0 min 251 W/m 11,2 km/h
19.03.2019 11:35 3,3 C 4,3 C 4,1 C 4,1 C 5,8 C 69 % 7 cb 1027,3 hPa 0,0 l/m 8,0 km/h O 90 0 min 232 W/m 11,2 km/h
19.03.2019 11:30 3,3 C 4,3 C 4,1 C 4,1 C 5,7 C 71 % 7 cb 1027,3 hPa 0,0 l/m 10,6 km/h O 90 0 min 227 W/m 16,0 km/h
19.03.2019 11:25 3,2 C 4,3 C 4,1 C 4,1 C 6,2 C 69 % 7 cb 1027,2 hPa 0,0 l/m 9,5 km/h O-NO 68 0 min 242 W/m 14,4 km/h
19.03.2019 11:20 3,3 C 4,3 C 4,1 C 4,1 C 6,9 C 69 % 7 cb 1027,3 hPa 0,0 l/m 6,1 km/h N 360 0 min 286 W/m 14,4 km/h
19.03.2019 11:15 3,2 C 4,3 C 4,1 C 4,1 C 6,9 C 68 % 7 cb 1027,2 hPa 0,0 l/m 5,3 km/h N-NO 22 5 min 352 W/m 9,6 km/h
19.03.2019 11:10 3,2 C 4,3 C 4,1 C 4,1 C 6,8 C 69 % 7 cb 1027,2 hPa 0,0 l/m 5,5 km/h N 360 5 min 367 W/m 12,8 km/h
19.03.2019 11:05 3,2 C 4,3 C 4,1 C 4,1 C 6,8 C 72 % 7 cb 1027,3 hPa 0,0 l/m 6,1 km/h NO 45 5 min 341 W/m 14,4 km/h
19.03.2019 11:00 3,1 C 4,3 C 4,1 C 4,1 C 6,7 C 73 % 7 cb 1027,3 hPa 0,0 l/m 6,5 km/h N 360 5 min 347 W/m 14,4 km/h
19.03.2019 10:55 3,2 C 4,3 C 4,1 C 4,1 C 6,4 C 77 % 7 cb 1027,3 hPa 0,0 l/m 5,2 km/h O-NO 68 5 min 386 W/m 8,0 km/h
19.03.2019 10:50 3,1 C 4,3 C 4,1 C 3,9 C 6,1 C 78 % 7 cb 1027,4 hPa 0,0 l/m 8,1 km/h O-NO 68 5 min 383 W/m 12,8 km/h
19.03.2019 10:45 3,1 C 4,3 C 4,1 C 3,9 C 5,9 C 76 % 7 cb 1027,4 hPa 0,0 l/m 1,6 km/h W-SW 248 5 min 449 W/m 4,8 km/h
19.03.2019 10:40 2,9 C 4,3 C 4,1 C 3,9 C 5,0 C 77 % 7 cb 1027,4 hPa 0,0 l/m 1,8 km/h W-SW 248 5 min 597 W/m 4,8 km/h
19.03.2019 10:35 3,1 C 4,3 C 4,1 C 3,9 C 4,8 C 78 % 7 cb 1027,3 hPa 0,0 l/m 3,1 km/h SW 225 5 min 737 W/m 6,4 km/h
19.03.2019 10:30 2,7 C 4,3 C 4,1 C 3,9 C 4,6 C 81 % 7 cb 1027,4 hPa 0,0 l/m 3,8 km/h SO 135 5 min 562 W/m 6,4 km/h
19.03.2019 10:25 2,3 C 4,3 C 4,1 C 3,9 C 4,2 C 81 % 7 cb 1027,7 hPa 0,0 l/m 4,9 km/h O 90 5 min 386 W/m 11,2 km/h
19.03.2019 10:20 2,1 C 4,3 C 4,1 C 3,9 C 4,5 C 83 % 7 cb 1027,7 hPa 0,0 l/m 6,2 km/h O 90 0 min 293 W/m 11,2 km/h
19.03.2019 10:15 2,2 C 4,3 C 4,1 C 3,9 C 4,6 C 84 % 7 cb 1027,8 hPa 0,0 l/m 11,2 km/h O 90 5 min 386 W/m 14,4 km/h
19.03.2019 10:10 2,0 C 4,3 C 4,1 C 3,9 C 4,5 C 83 % 7 cb 1027,8 hPa 0,0 l/m 5,2 km/h O 90 5 min 351 W/m 9,6 km/h
19.03.2019 10:05 2,2 C 4,3 C 4,1 C 3,9 C 4,4 C 86 % 7 cb 1027,8 hPa 0,0 l/m 10,7 km/h O 90 5 min 308 W/m 16,0 km/h
19.03.2019 10:00 2,1 C 4,3 C 4,1 C 3,9 C 5,6 C 86 % 7 cb 1027,8 hPa 0,0 l/m 6,6 km/h O-NO 68 5 min 365 W/m 12,8 km/h
19.03.2019 09:55 2,2 C 4,3 C 4,1 C 3,8 C 5,6 C 85 % 7 cb 1027,8 hPa 0,0 l/m 3,6 km/h O-NO 68 5 min 499 W/m 8,0 km/h
19.03.2019 09:50 2,0 C 4,3 C 4,1 C 3,8 C 5,4 C 86 % 7 cb 1027,8 hPa 0,0 l/m 1,9 km/h O-NO 68 5 min 416 W/m 4,8 km/h
19.03.2019 09:45 1,9 C 4,3 C 4,1 C 3,8 C 5,3 C 88 % 7 cb 1027,8 hPa 0,0 l/m 1,1 km/h O-NO 68 5 min 375 W/m 4,8 km/h
19.03.2019 09:40 1,8 C 4,3 C 4,1 C 3,8 C 4,8 C 90 % 7 cb 1027,8 hPa 0,0 l/m 0,0 km/h N 360 5 min 280 W/m 0,0 km/h
19.03.2019 09:35 1,3 C 4,3 C 4,1 C 3,8 C 4,6 C 89 % 7 cb 1028,0 hPa 0,0 l/m 2,0 km/h O-NO 68 5 min 272 W/m 6,4 km/h
19.03.2019 09:30 1,2 C 4,3 C 4,1 C 3,8 C 4,1 C 89 % 7 cb 1028,0 hPa 0,0 l/m 2,1 km/h O-NO 68 0 min 224 W/m 6,4 km/h
19.03.2019 09:25 1,1 C 4,3 C 4,1 C 3,8 C 3,9 C 88 % 7 cb 1028,1 hPa 0,0 l/m 1,7 km/h O-NO 68 0 min 207 W/m 6,4 km/h
19.03.2019 09:20 1,0 C 4,3 C 4,1 C 3,8 C 3,8 C 89 % 7 cb 1028,1 hPa 0,0 l/m 3,1 km/h O-NO 68 0 min 214 W/m 4,8 km/h
19.03.2019 09:15 0,8 C 4,3 C 4,1 C 3,8 C 3,5 C 91 % 7 cb 1028,1 hPa 0,0 l/m 1,8 km/h O-NO 68 0 min 217 W/m 4,8 km/h
19.03.2019 09:10 0,6 C 4,3 C 4,1 C 3,8 C 3,1 C 92 % 7 cb 1028,2 hPa 0,0 l/m 2,5 km/h O-NO 68 0 min 215 W/m 4,8 km/h
19.03.2019 09:05 0,4 C 4,3 C 4,1 C 3,8 C 2,7 C 92 % 7 cb 1028,2 hPa 0,0 l/m 0,7 km/h O-NO 68 0 min 179 W/m 3,2 km/h
19.03.2019 09:00 0,4 C 4,3 C 4,1 C 3,8 C 2,6 C 93 % 7 cb 1028,2 hPa 0,0 l/m 2,7 km/h O-NO 68 0 min 159 W/m 4,8 km/h
19.03.2019 08:55 0,3 C 4,3 C 4,1 C 3,8 C 2,4 C 93 % 7 cb 1028,3 hPa 0,0 l/m 2,3 km/h O-NO 68 0 min 136 W/m 4,8 km/h
19.03.2019 08:50 0,2 C 4,3 C 4,1 C 3,8 C 1,9 C 92 % 7 cb 1028,2 hPa 0,0 l/m 1,4 km/h O-NO 68 0 min 112 W/m 3,2 km/h
19.03.2019 08:45 0,2 C 4,3 C 4,1 C 3,8 C 1,7 C 93 % 7 cb 1028,2 hPa 0,0 l/m 1,4 km/h O-NO 68 0 min 97 W/m 3,2 km/h
19.03.2019 08:40 0,2 C 4,3 C 4,1 C 3,8 C 1,8 C 92 % 7 cb 1028,1 hPa 0,0 l/m 2,2 km/h O-NO 68 0 min 103 W/m 4,8 km/h
19.03.2019 08:35 0,2 C 4,3 C 4,1 C 3,8 C 1,9 C 92 % 7 cb 1028,1 hPa 0,0 l/m 3,4 km/h O-NO 68 0 min 117 W/m 6,4 km/h
19.03.2019 08:30 0,3 C 4,3 C 4,1 C 3,8 C 2,1 C 92 % 7 cb 1028,0 hPa 0,0 l/m 2,9 km/h O-NO 68 0 min 119 W/m 4,8 km/h
19.03.2019 08:25 0,2 C 4,3 C 4,1 C 3,8 C 1,8 C 93 % 7 cb 1028,0 hPa 0,0 l/m 2,8 km/h O-NO 68 0 min 94 W/m 4,8 km/h
19.03.2019 08:20 0,0 C 4,3 C 4,1 C 3,8 C 1,5 C 93 % 7 cb 1028,1 hPa 0,0 l/m 2,6 km/h O-NO 68 0 min 103 W/m 6,4 km/h
19.03.2019 08:15 -0,1 C 4,3 C 4,1 C 3,8 C 1,5 C 93 % 7 cb 1028,1 hPa 0,0 l/m 1,4 km/h O-NO 68 0 min 120 W/m 4,8 km/h
19.03.2019 08:10 -0,1 C 4,3 C 4,1 C 3,8 C 1,5 C 93 % 7 cb 1028,0 hPa 0,0 l/m 3,2 km/h O-NO 68 0 min 99 W/m 4,8 km/h
19.03.2019 08:05 -0,2 C 4,3 C 4,1 C 3,8 C 1,2 C 93 % 7 cb 1028,0 hPa 0,0 l/m 3,2 km/h O-NO 68 0 min 81 W/m 4,8 km/h
19.03.2019 08:00 -0,3 C 4,4 C 4,1 C 3,8 C 0,7 C 93 % 7 cb 1028,0 hPa 0,0 l/m 3,5 km/h O-NO 68 0 min 64 W/m 4,8 km/h
19.03.2019 07:55 -0,3 C 4,4 C 4,1 C 3,9 C 0,5 C 93 % 7 cb 1027,9 hPa 0,0 l/m 5,2 km/h O-NO 68 0 min 45 W/m 6,4 km/h
19.03.2019 07:50 -0,3 C 4,4 C 4,1 C 3,9 C 0,5 C 93 % 7 cb 1027,9 hPa 0,0 l/m 4,6 km/h O-NO 68 0 min 39 W/m 8,0 km/h
19.03.2019 07:45 -0,3 C 4,4 C 4,1 C 3,9 C 0,4 C 93 % 7 cb 1027,7 hPa 0,0 l/m 3,0 km/h O-NO 68 0 min 38 W/m 6,4 km/h
19.03.2019 07:40 -0,4 C 4,4 C 4,2 C 3,9 C 0,4 C 93 % 7 cb 1027,7 hPa 0,0 l/m 1,0 km/h O-NO 68 0 min 51 W/m 3,2 km/h
19.03.2019 07:35 -0,3 C 4,4 C 4,2 C 3,9 C 0,2 C 93 % 7 cb 1027,7 hPa 0,0 l/m 2,5 km/h O-NO 68 0 min 39 W/m 4,8 km/h
19.03.2019 07:30 -0,3 C 4,4 C 4,2 C 3,9 C 0,0 C 93 % 7 cb 1027,6 hPa 0,0 l/m 3,1 km/h O-NO 68 0 min 28 W/m 4,8 km/h
19.03.2019 07:25 -0,3 C 4,4 C 4,2 C 3,9 C -0,2 C 93 % 7 cb 1027,5 hPa 0,0 l/m 1,6 km/h O-NO 68 0 min 25 W/m 4,8 km/h
19.03.2019 07:20 -0,3 C 4,4 C 4,2 C 3,9 C -0,3 C 92 % 7 cb 1027,5 hPa 0,2 l/m 0,2 km/h O-NO 68 0 min 25 W/m 1,6 km/h
19.03.2019 07:15 -0,3 C 4,4 C 4,2 C 3,9 C -0,3 C 93 % 7 cb 1027,4 hPa 0,0 l/m 1,7 km/h O-NO 68 0 min 20 W/m 3,2 km/h
19.03.2019 07:10 -0,4 C 4,4 C 4,2 C 3,9 C -0,3 C 93 % 7 cb 1027,6 hPa 0,0 l/m 0,9 km/h O-NO 68 0 min 21 W/m 1,6 km/h
19.03.2019 07:05 -0,4 C 4,4 C 4,2 C 3,9 C -0,3 C 93 % 7 cb 1027,5 hPa 0,0 l/m 0,3 km/h O-NO 68 0 min 26 W/m 1,6 km/h
19.03.2019 07:00 -0,4 C 4,4 C 4,2 C 3,9 C -0,3 C 92 % 7 cb 1027,3 hPa 0,0 l/m 1,5 km/h O-NO 68 0 min 22 W/m 4,8 km/h
19.03.2019 06:55 -0,3 C 4,4 C 4,2 C 3,9 C -0,3 C 92 % 7 cb 1027,3 hPa 0,0 l/m 2,1 km/h O-NO 68 0 min 19 W/m 4,8 km/h
19.03.2019 06:50 -0,3 C 4,4 C 4,2 C 3,9 C -0,3 C 92 % 7 cb 1027,3 hPa 0,0 l/m 0,0 km/h N 360 0 min 15 W/m 0,0 km/h
19.03.2019 06:45 -0,3 C 4,4 C 4,3 C 3,9 C -0,4 C 92 % 7 cb 1027,2 hPa 0,0 l/m 0,0 km/h N 360 0 min 6 W/m 0,0 km/h
19.03.2019 06:40 -0,3 C 4,4 C 4,3 C 3,9 C -0,4 C 92 % 7 cb 1027,2 hPa 0,0 l/m 0,0 km/h N 360 0 min 6 W/m 0,0 km/h
19.03.2019 06:35 -0,3 C 4,4 C 4,3 C 3,9 C -0,5 C 92 % 7 cb 1027,0 hPa 0,0 l/m 0,0 km/h N 360 0 min 2 W/m 0,0 km/h
19.03.2019 06:30 -0,4 C 4,4 C 4,3 C 3,9 C -0,6 C 92 % 7 cb 1027,0 hPa 0,0 l/m 0,0 km/h N 360 0 min 0 W/m 0,0 km/h
19.03.2019 06:25 -0,4 C 4,4 C 4,3 C 3,9 C -0,6 C 93 % 7 cb 1027,0 hPa 0,0 l/m 0,0 km/h N 360 0 min 0 W/m 0,0 km/h
19.03.2019 06:20 -0,4 C 4,4 C 4,3 C 3,9 C -0,6 C 92 % 7 cb 1027,0 hPa 0,0 l/m 0,0 km/h N 360 0 min 0 W/m 0,0 km/h
19.03.2019 06:15 -0,4 C 4,4 C 4,3 C 4,1 C -0,6 C 92 % 7 cb 1027,0 hPa 0,0 l/m 0,0 km/h N 360 0 min 0 W/m 0,0 km/h
19.03.2019 06:10 -0,4 C 4,4 C 4,3 C 4,1 C -0,6 C 92 % 7 cb 1026,9 hPa 0,0 l/m 0,6 km/h O-NO 68 0 min 0 W/m 3,2 km/h
19.03.2019 06:05 -0,4 C 4,4 C 4,3 C 4,1 C -0,7 C 92 % 7 cb 1026,8 hPa 0,0 l/m 0,2 km/h O-NO 68 0 min 0 W/m 1,6 km/h
19.03.2019 06:00 -0,4 C 4,4 C 4,3 C 4,1 C -0,7 C 92 % 7 cb 1026,7 hPa 0,0 l/m 0,6 km/h O-NO 68 0 min 0 W/m 3,2 km/h
19.03.2019 05:55 -0,4 C 4,4 C 4,3 C 4,1 C -0,8 C 92 % 7 cb 1026,7 hPa 0,0 l/m 0,6 km/h O-NO 68 0 min 0 W/m 1,6 km/h
19.03.2019 05:50 -0,4 C 4,4 C 4,3 C 4,1 C -0,9 C 92 % 7 cb 1026,6 hPa 0,0 l/m 0,2 km/h O-NO 68 0 min 0 W/m 1,6 km/h
19.03.2019 05:45 -0,4 C 4,4 C 4,3 C 4,1 C -0,8 C 92 % 7 cb 1026,6 hPa 0,0 l/m 0,2 km/h O-NO 68 0 min 0 W/m 1,6 km/h
19.03.2019 05:40 -0,4 C 4,4 C 4,3 C 4,1 C -0,8 C 92 % 7 cb 1026,7 hPa 0,0 l/m 1,1 km/h O-NO 68 0 min 0 W/m 4,8 km/h
19.03.2019 05:35 -0,4 C 4,4 C 4,3 C 4,1 C -0,9 C 93 % 7 cb 1026,6 hPa 0,0 l/m 0,7 km/h O-NO 68 0 min 0 W/m 3,2 km/h
19.03.2019 05:30 -0,4 C 4,4 C 4,3 C 4,1 C -0,8 C 92 % 7 cb 1026,6 hPa 0,0 l/m 0,0 km/h N 360 0 min 0 W/m 0,0 km/h
19.03.2019 05:25 -0,4 C 4,4 C 4,3 C 4,1 C -0,9 C 92 % 7 cb 1026,6 hPa 0,0 l/m 0,0 km/h N 360 0 min 0 W/m 0,0 km/h
19.03.2019 05:20 -0,4 C 4,4 C 4,3 C 4,1 C -0,9 C 92 % 7 cb 1026,6 hPa 0,0 l/m 0,0 km/h N 360 0 min 0 W/m 0,0 km/h
19.03.2019 05:15 -0,4 C 4,4 C 4,3 C 4,1 C -1,1 C 92 % 7 cb 1026,5 hPa 0,0 l/m 0,6 km/h O-NO 68 0 min 0 W/m 3,2 km/h
19.03.2019 05:10 -0,5 C 4,4 C 4,4 C 4,1 C -1,1 C 91 % 7 cb 1026,7 hPa 0,0 l/m 1,0 km/h O-NO 68 0 min 0 W/m 3,2 km/h
19.03.2019 05:05 -0,3 C 4,4 C 4,4 C 4,1 C -0,9 C 91 % 7 cb 1026,5 hPa 0,0 l/m 1,4 km/h O-NO 68 0 min 0 W/m 3,2 km/h
19.03.2019 05:00 -0,3 C 4,4 C 4,4 C 4,1 C -1,0 C 91 % 7 cb 1026,5 hPa 0,0 l/m 0,1 km/h O-NO 68 0 min 0 W/m 3,2 km/h
_ Min-Zeit 04:30 08:05 07:45 08:00 04:25 15:00 12:20 14:55 - 05:20 - - - - 05:20
Minimum _ -2,3 C 4,3 C 4,1 C 3,8 C -4,1 C 43 % 6 cb 1025,7 hPa - 0,0 km/h - - - - 0,0 km/h
_ Max-Zeit 13:25 21:20 18:35 16:50 13:00 05:35 05:00 04:25 07:20 15:35 - - 09:35 12:20 15:20
Maximum _ 6,2 C 4,6 C 5,5 C 6,1 C 19,1 C 93 % 7 cb 1035,1 hPa 0,2 l/m 14,3 km/h
O
- - 5 min 938 W/m 24,0 km/h
NO
Durchschnitt _ 1,6 C 4,4 C 4,7 C 4,7 C 2,2 C 76 % 6 cb 1029,4 hPa #0,2 l/m 3,2 km/h O-NO - #0 min. 0 W/m 6,5 km/h